Regional Weather Roundup
Issued by NWS

Home | Current Version | Previous Version | Text Only | Print | Product List | Glossary Off
Versions: 1 2 3 4 5 6 7 8 9 10 11 12 13 14 15 16 17 18 19 20 21 22 23 24 25 26 27 28 29 30 31 32 33 34 35 36 37 38 39 40 41 42 43 44 45 46 47 48 49 50

000
ASUS45 KABQ 211601
RWRNM
WEATHER ROUNDUP FOR NEW MEXICO
NATIONAL WEATHER SERVICE ALBUQUERQUE NM
1000 AM MDT THU AUG 21 2014

NOTE: "FAIR" MEANS FEW OR NO CLOUDS BELOW 12,000 FEET AGL WITH NO
       SIGNIFICANT WEATHER OR OBSTRUCTIONS TO VISION.

      THIS PRODUCT IS RELEASED AS TWO VERSIONS.  ONE VERSION NEAR
      THE TOP OF THE HOUR CONTAINING PRELIMINARY DATA FROM ALBUQUERQUE
      AND OTHER STATIONS.  A FINAL VERSION WITH ADDITIONAL DATA IS
      ISSUED ABOUT 10 MINUTES AFTER THE HOUR.

NMZ501-503-504-510>518-211700-
NORTHWEST PLATEAU/NORTHCENTRAL MOUNTAINS

CITY           SKY/WX    TMP DP  RH WIND       PRES   REMARKS
FARMINGTON     SUNNY     68  42  38 SE7       30.18F
LOS ALAMOS     SUNNY     69  38  31 CALM      30.29S
SANTA FE       SUNNY     75  39  27 N9        30.22S
TAOS           SUNNY     66  37  34 CALM      30.30S
ANGEL FIRE     FAIR      63  41  44 N3        30.36F

$$
NMZ402-403-502-505>509-211700-
WESTCENTRAL MOUNTAINS/SOUTHWEST MOUNTAINS

CITY           SKY/WX    TMP DP  RH WIND       PRES   REMARKS
GALLUP         PTSUNNY   69  41  36 VRB5      30.26S
SILVER CITY    SUNNY     73  50  43 NE3       30.19S

$$
NMZ407-409-411-412-211700-
SOUTHERN DESERTS

CITY           SKY/WX    TMP DP  RH WIND       PRES   REMARKS
LORDSBURG      FAIR      73  54  49 W6        30.13R
DEMING         MOSUNNY   77  55  46 W7        30.12R
LAS CRUCES     SUNNY     78  52  40 W8        30.12S
HOLLOMAN AFB   MOSUNNY   81  52  36 S7        30.08R
ALAMOGORDO     MOSUNNY   81  50  34 S8        30.10S
T OR C         SUNNY     78  47  33 NE9       30.13S

$$
NMZ519>523-211700-
CENTRAL VALLEYS/CENTRAL HIGHLANDS

CITY           SKY/WX    TMP DP  RH WIND       PRES   REMARKS
ALBUQUERQUE    MOSUNNY   76  42  29 NE3       30.18S
DOUBLE EAGLE   MOSUNNY   73  43  33 NE3       30.21S
CLINES CORNERS SUNNY     74  39  28 NW12      30.25R
BELEN          FAIR      75  43  31 NW5       30.17S
SOCORRO        FAIR      77  45  32 CALM      30.15S

$$
NMZ524>526-539-540-211700-
SOUTHCENTRAL MOUNTAINS

CITY           SKY/WX    TMP DP  RH WIND       PRES   REMARKS
RUIDOSO        NOT AVBL

$$
NMZ527>531-211700-
NORTHEAST HIGHLANDS/NORTHEAST PLAINS

CITY           SKY/WX    TMP DP  RH WIND       PRES   REMARKS
LAS VEGAS      SUNNY     74  40  29 N6        30.24R
RATON          SUNNY     75  48  38 CALM      30.18S
CLAYTON        MOSUNNY   82  53  36 N16G22    30.08S

$$
NMZ532>537-211700-
EASTCENTRAL PLAINS

CITY           SKY/WX    TMP DP  RH WIND       PRES   REMARKS
TUCUMCARI      MOSUNNY   83  59  44 NW7       30.03R
CANNON AFB     NOT AVBL
CLOVIS AIRPORT   N/A     81  61  50 S10       30.09S

$$
NMZ028-029-538-211700-
SOUTHEAST PLAINS

CITY           SKY/WX    TMP DP  RH WIND       PRES   REMARKS
ROSWELL        SUNNY     81  60  48 N5        30.03S
ARTESIA        SUNNY     86  50  28 CALM      30.04R
CARLSBAD       SUNNY     86  53  32 SE8       30.02R
HOBBS          MOSUNNY   82  59  44 S15G21    30.07R


$$


USA.gov is the U.S. government's official web portal to all federal, state and local government web resources and services.